Wind_Speed
33 33 34 34 35 35 35 35 35 35 34 34 34 34 34 34 34 33 33 33 32 32 32 33 33 34 35 34 32 31 31 31 30 30 29 28 28 28 28 28 29 30 31 31 32 32 32 30 27 23 20 21 21 21 20 20 20 20 20 21 23 25 27 30 33 37 40 44 49 56 63 69 72 74 77 80 82 82 81 80 79 78 78 76 73
34 34 35 35 35 35 36 36 36 36 35 34 34 34 34 34 34 34 34 35 34 34 33 33 33 34 35 35 34 32 30 30 30 30 29 29 28 29 29 30 31 32 32 33 33 33 32 31 27 24 23 23 24 24 23 22 22 22 22 22 22 23 25 27 30 32 36 40 42 46 52 59 66 72 74 77 79 81 82 81 80 80 79 78 77
32 32 32 33 33 34 34 34 34 34 34 34 33 33 33 33 34 34 34 34 34 33 33 33 32 32 33 33 33 33 31 30 30 31 30 30 30 30 31 32 32 33 34 34 33 33 32 30 27 24 24 26 27 27 26 25 23 23 23 23 23 23 23 25 27 29 32 35 39 41 44 48 54 63 70 74 77 79 81 82 81 81 80 79 79
29 30 30 31 31 32 32 32 32 32 33 33 33 33 33 33 33 33 33 33 33 32 32 32 32 32 32 32 32 32 32 32 31 31 31 31 31 32 33 33 33 34 36 35 34 33 32 30 27 25 26 27 29 29 28 27 26 25 25 24 24 24 24 24 24 26 29 32 35 38 40 42 45 50 59 67 73 77 79 81 82 82 82 81 81
30 29 30 30 30 30 31 31 32 32 32 33 33 33 33 33 33 33 32 32 32 32 32 32 32 32 32 32 32 32 32 32 32 31 32 33 34 34 34 34 35 36 36 35 33 32 31 29 27 27 28 29 30 30 29 29 29 28 26 26 25 24 25 24 24 24 26 29 32 34 37 39 41 43 47 54 64 72 77 79 81 82 83 83 83
30 30 30 30 30 30 31 31 32 32 32 32 32 33 33 33 33 33 33 33 33 33 33 33 33 33 33 33 33 33 32 32 31 31 31 33 34 34 34 35 35 36 35 33 32 32 31 29 29 29 31 32 32 32 31 30 30 30 29 28 26 25 25 25 24 23 24 26 29 31 34 36 38 40 41 44 51 61 70 77 79 81 82 84 85
30 30 31 31 31 31 31 31 32 32 32 33 33 34 34 34 34 34 34 33 33 33 33 33 34 34 34 34 34 33 32 31 30 30 31 31 32 32 33 33 33 33 32 32 32 31 31 31 31 32 33 34 33 33 32 32 32 32 31 29 28 27 26 26 25 24 24 24 26 29 31 33 36 38 40 41 43 48 57 68 76 80 82 83 85
31 31 32 32 32 32 32 32 32 32 33 33 34 35 35 35 35 35 35 34 34 34 34 34 34 34 34 34 34 34 33 32 31 30 30 30 30 30 30 30 31 31 30 30 30 31 31 31 32 33 33 34 34 34 33 33 32 32 32 31 30 30 29 27 27 26 26 25 26 27 29 31 34 36 38 40 41 43 46 54 65 75 81 82 83
32 32 32 33 33 33 33 33 33 33 34 34 35 35 36 37 37 37 37 36 36 35 35 35 35 35 35 35 35 34 34 33 32 31 31 30 30 30 29 29 29 29 29 29 29 30 30 31 31 32 33 34 34 34 34 33 33 33 33 33 33 32 31 30 30 29 28 28 27 27 28 30 32 35 37 39 41 42 43 46 52 62 73 81 83
33 34 34 34 34 34 34 34 34 35 35 36 36 37 38 38 39 39 39 39 38 38 38 37 37 37 37 37 37 36 36 34 33 33 33 32 32 32 31 31 30 30 30 30 30 30 31 32 33 33 34 35 35 36 36 36 35 35 35 35 35 34 34 33 32 32 31 31 30 29 29 29 31 33 36 38 40 41 43 44 46 51 60 71 80
34 34 35 34 34 34 34 34 35 36 37 37 38 38 39 40 41 41 41 41 41 41 41 40 40 39 39 39 39 39 39 38 37 35 35 34 34 33 33 32 32 32 33 33 33 33 33 34 35 35 35 36 37 38 38 38 38 38 37 37 37 37 36 36 35 35 35 34 33 32 32 31 31 32 35 37 39 41 42 44 46 47 51 58 68
34 34 34 34 33 33 33 33 34 35 36 37 37 38 38 39 40 42 43 43 44 44 43 43 43 43 42 42 41 41 41 41 41 40 39 38 37 36 35 35 35 35 36 36 36 36 35 35 36 37 37 38 38 39 40 41 41 40 40 39 39 39 38 38 38 37 37 37 36 35 35 35 33 32 34 37 39 41 42 44 46 48 50 52 57
35 35 34 34 34 34 34 34 34 35 36 37 37 38 39 39 40 41 43 44 45 46 46 46 46 45 45 45 44 43 43 43 43 43 42 41 40 40 39 39 39 39 39 40 40 40 38 38 38 39 40 40 40 41 42 42 42 42 41 41 41 41 40 39 39 38 38 38 38 37 37 38 36 34 35 36 38 40 43 44 46 48 50 52 54
35 36 36 36 36 36 36 37 37 38 39 39 40 40 41 42 43 44 45 46 47 47 48 48 49 48 48 47 47 46 45 44 44 44 44 43 43 42 42 42 42 42 42 42 43 43 42 41 40 40 41 42 43 44 44 44 43 42 41 41 41 42 42 41 40 39 39 39 39 38 38 39 39 38 36 37 38 40 42 45 46 48 51 53 54
34 37 38 38 38 38 39 39 40 40 41 42 43 44 45 46 46 47 49 49 50 50 50 51 51 50 50 50 49 48 47 46 45 45 45 45 45 45 45 45 44 43 43 43 44 46 46 45 44 43 43 44 45 46 46 46 45 43 42 41 41 41 42 42 42 40 39 39 39 39 39 39 40 40 38 38 39 40 42 44 46 49 51 53 55
34 36 37 39 39 40 40 40 41 42 42 43 45 46 48 49 50 50 51 52 53 53 54 54 53 52 51 51 51 51 49 47 46 46 45 45 45 46 46 46 46 45 44 44 45 47 48 48 47 46 45 45 46 47 48 47 46 45 44 43 42 41 41 42 42 41 40 40 39 39 39 40 40 40 39 39 40 41 42 44 46 48 51 53 54
37 36 37 39 40 41 41 42 42 43 44 44 46 47 48 49 51 52 53 54 55 55 56 57 57 56 54 52 52 52 52 50 48 47 47 46 46 46 47 47 47 46 45 44 46 47 49 50 50 49 48 47 47 48 48 48 47 47 46 44 42 41 41 41 42 41 41 40 40 39 40 40 41 41 40 39 40 41 42 43 45 47 49 51 53
41 40 40 40 41 41 41 42 43 44 45 46 46 47 49 50 51 52 53 54 56 56 57 58 58 59 58 55 54 53 54 53 52 50 49 48 47 47 48 48 48 47 46 45 46 47 49 50 51 51 50 49 49 50 49 48 48 48 46 44 42 41 42 42 41 41 41 41 40 40 40 41 41 41 40 40 39 40 42 43 44 45 48 49 51
45 45 44 43 44 44 43 43 43 44 45 46 47 48 50 52 53 53 54 55 56 57 58 58 58 59 60 58 56 55 55 55 55 54 52 50 48 48 48 49 49 48 47 48 48 48 49 50 51 51 51 50 51 52 49 48 49 49 46 44 43 42 43 44 42 40 41 40 40 40 41 41 42 42 41 40 40 41 42 43 43 44 46 47 48
51 50 49 48 48 48 47 47 46 47 47 48 48 49 51 53 54 56 56 57 58 59 60 60 60 59 60 59 57 56 55 56 56 55 54 53 51 49 50 50 50 49 50 51 51 51 51 51 51 51 50 51 53 53 50 49 50 49 46 45 44 44 44 45 43 41 40 40 40 40 41 42 42 42 42 41 40 41 42 43 43 44 45 46 47
55 55 54 53 52 52 51 51 51 51 51 50 51 52 54 55 56 58 59 59 60 61 61 62 62 62 61 60 58 57 56 55 56 55 55 55 53 51 51 51 51 51 53 53 53 54 54 53 53 51 49 50 53 54 52 51 50 49 47 45 45 44 44 45 44 42 40 40 39 39 40 41 42 42 42 42 41 41 42 43 43 43 44 45 45
58 57 57 56 56 56 55 54 54 54 54 54 54 55 57 58 59 60 61 62 63 63 63 63 63 63 63 62 60 58 56 55 55 56 56 56 55 53 52 51 51 52 55 54 53 54 55 55 55 53 50 51 53 54 54 53 51 50 48 47 45 44 43 44 45 43 41 40 40 39 39 40 42 42 42 42 42 41 41 42 43 44 44 44 43
59 59 59 59 59 58 57 57 57 57 57 57 57 58 60 62 62 63 64 65 66 66 65 65 64 64 65 64 62 60 58 56 56 56 56 57 57 55 54 53 52 52 54 55 54 54 55 55 55 54 52 53 54 55 56 55 53 51 51 49 47 45 44 44 45 44 42 40 40 40 39 40 41 42 43 43 42 42 41 41 42 44 44 43 41
60 60 60 60 60 59 59 58 59 59 58 58 59 61 62 64 66 67 67 68 69 68 67 66 65 65 65 64 62 61 60 59 58 58 58 58 58 57 55 55 54 53 53 53 54 53 54 54 55 54 54 55 56 57 58 56 54 53 52 50 49 47 46 45 46 46 44 41 39 39 39 39 40 41 43 43 42 41 41 41 42 43 43 42 39
62 61 61 60 60 60 60 60 60 61 60 60 60 62 64 65 67 69 70 71 71 70 68 67 67 67 66 64 62 61 61 61 61 61 60 59 58 58 57 55 55 55 54 53 52 52 52 54 55 55 56 58 59 60 60 58 56 54 53 52 51 49 47 46 47 47 45 41 39 39 39 39 39 41 43 43 43 41 40 40 41 42 43 42 38
64 64 63 62 61 61 60 61 62 62 62 62 63 64 65 67 69 71 72 73 72 71 69 68 68 67 66 64 63 62 62 63 64 64 62 60 58 58 57 56 55 54 53 52 51 51 51 54 56 56 58 59 61 63 63 61 59 57 54 53 51 48 46 46 47 46 43 40 39 39 39 39 39 40 42 43 43 42 40 39 40 41 43 42 38
66 65 65 64 64 64 63 63 64 65 65 66 66 67 68 69 72 74 75 75 74 73 71 70 69 67 64 63 63 63 63 64 66 66 64 61 59 58 58 57 55 53 52 51 50 50 51 53 55 57 59 61 62 65 65 63 61 59 56 52 49 46 46 47 46 44 43 41 40 40 40 40 39 39 41 42 43 42 40 39 39 41 42 42 38
69 68 67 66 67 68 69 69 68 68 69 69 70 71 72 73 75 76 76 76 76 75 74 72 69 66 63 62 62 63 64 66 68 67 65 62 60 59 59 57 55 53 52 51 50 50 51 54 55 58 61 62 63 66 67 64 62 60 57 53 49 47 46 47 46 44 43 42 41 41 41 41 40 39 40 41 42 42 40 39 39 40 42 42 39
72 71 71 70 71 72 74 74 73 73 72 72 73 74 76 77 77 78 79 79 78 76 74 72 69 65 62 62 62 63 65 68 69 67 64 62 60 59 58 57 55 53 52 51 51 51 52 54 55 58 62 64 64 68 70 67 64 62 59 55 51 48 47 46 45 45 43 42 42 42 42 42 41 39 39 41 41 41 40 39 40 41 42 42 40
75 75 76 76 76 76 76 76 77 77 76 76 77 77 78 79 79 80 81 81 79 77 73 70 67 64 63 63 64 64 66 67 68 66 64 62 60 58 57 56 54 53 51 51 51 52 54 55 56 59 63 65 65 68 70 68 66 64 61 56 52 49 48 47 45 45 44 43 43 42 41 42 42 41 40 40 41 41 41 40 40 41 42 42 41
79 80 80 80 80 80 79 79 80 80 80 80 80 80 80 80 80 81 82 80 79 77 74 69 66 65 65 65 66 66 66 65 64 64 63 62 60 59 57 55 54 53 52 51 52 54 56 57 58 61 64 65 66 67 68 67 65 63 60 56 52 49 48 47 46 45 45 44 43 42 41 41 42 42 41 41 41 41 41 41 41 41 42 43 42
82 83 83 83 83 83 83 83 83 84 84 83 82 81 81 80 80 81 81 78 75 74 73 70 68 68 68 68 67 66 65 64 63 62 62 61 60 59 57 56 55 54 53 53 54 56 58 59 61 64 66 67 67 67 67 65 64 62 59 55 52 49 48 47 46 45 45 45 43 42 41 41 41 42 42 42 42 42 42 42 41 42 43 43 42
84 85 85 85 86 86 86 86 86 86 85 84 83 82 81 79 77 77 77 75 73 71 70 70 70 70 71 71 70 67 65 63 63 62 62 61 60 59 58 57 56 56 57 57 58 60 61 62 64 66 68 68 68 68 67 65 63 61 57 54 52 50 48 47 46 46 46 44 43 43 42 41 41 41 42 42 43 43 43 42 41 42 44 45 44
86 86 86 87 87 88 88 88 88 87 86 84 83 82 80 78 75 73 72 72 71 71 71 70 71 72 74 73 71 69 67 64 63 63 63 62 62 61 59 58 58 60 61 61 62 63 63 64 66 68 68 67 66 66 66 65 63 60 56 54 52 51 49 48 47 47 46 45 44 44 43 42 41 41 41 42 43 43 43 43 41 42 44 46 45
88 88 88 89 89 89 89 89 88 86 85 84 82 81 79 76 74 71 69 69 69 71 72 72 72 74 75 75 73 71 69 67 65 64 64 63 63 63 62 61 61 62 63 64 64 65 65 65 66 68 68 66 65 64 63 63 62 59 56 54 53 52 50 49 48 47 47 46 45 44 43 42 42 42 41 42 42 43 43 42 41 42 44 46 46
92 92 91 90 90 89 88 87 86 84 83 82 80 79 77 75 73 71 69 69 69 70 72 73 74 75 76 75 72 71 70 69 68 67 66 65 65 65 64 64 63 64 65 66 66 66 67 66 67 67 67 67 66 63 61 61 60 58 54 53 53 52 52 51 50 48 47 47 46 45 44 43 43 42 42 42 42 42 42 41 41 42 44 46 47
95 94 93 92 90 88 86 84 82 81 79 78 77 76 75 74 73 72 71 71 71 71 72 73 75 75 75 74 72 71 70 70 70 69 68 68 67 67 66 66 65 65 66 67 67 67 68 68 68 67 67 66 65 62 60 60 60 57 53 52 52 52 52 52 51 49 48 47 47 46 45 44 44 43 43 43 42 41 40 40 41 42 44 46 46
97 96 94 92 90 87 84 82 79 77 75 74 74 73 73 73 73 73 73 73 73 73 74 74 75 75 74 73 72 71 71 71 71 71 70 69 68 68 67 67 67 67 67 67 68 68 68 69 68 67 67 67 65 62 59 59 59 58 54 52 52 53 53 52 51 49 48 47 47 47 46 45 45 44 43 43 42 41 40 40 41 42 43 45 46
97 95 93 90 88 85 82 79 76 74 73 73 72 72 73 73 74 74 75 75 75 76 76 75 75 74 73 72 71 71 71 72 72 72 71 71 70 69 68 68 68 68 67 68 68 68 68 69 68 67 67 68 66 63 60 59 59 58 55 54 55 56 54 51 50 49 47 46 46 47 47 47 46 45 44 44 43 40 39 39 40 41 42 43 45
96 93 91 88 85 82 80 77 75 73 72 72 73 74 74 75 75 75 76 77 77 77 77 76 75 74 73 72 71 70 70 71 71 71 71 71 71 70 70 69 68 68 67 68 68 68 67 68 67 67 67 67 67 65 62 60 58 57 55 56 58 57 54 51 50 49 47 47 47 47 48 48 47 46 45 45 43 41 40 39 39 40 41 42 44
94 91 89 86 83 81 79 77 75 74 73 73 74 75 76 76 77 77 78 78 78 78 78 77 76 75 74 73 71 71 70 70 70 70 71 71 71 70 70 69 68 68 67 68 68 68 67 67 66 66 66 66 66 66 64 62 59 56 54 56 59 57 53 52 52 49 46 47 48 48 48 48 47 46 45 44 44 43 41 40 39 39 40 41 43
92 89 87 85 82 80 79 77 75 75 75 75 75 76 77 78 79 79 80 80 80 79 78 77 76 75 75 74 72 71 70 70 70 70 70 70 70 70 69 69 68 68 67 67 68 67 67 66 65 65 65 65 65 65 64 62 61 57 54 55 57 55 53 53 52 49 46 47 48 49 49 48 47 46 45 45 45 45 43 41 40 40 40 41 43
89 88 86 84 82 80 79 77 76 76 76 77 77 78 79 79 80 80 80 80 79 78 77 76 76 75 75 75 74 72 71 71 70 70 70 69 69 69 69 68 68 68 67 67 67 66 65 65 65 64 64 63 62 62 63 62 61 58 54 53 53 53 52 52 51 49 46 46 48 50 50 48 47 46 45 46 47 46 45 44 43 41 40 41 42
88 86 84 83 82 80 79 78 78 78 78 79 79 80 80 80 80 79 78 78 77 77 76 75 75 75 75 75 75 74 73 72 71 70 70 69 69 68 68 67 66 66 66 66 65 64 63 63 63 62 62 61 60 60 62 62 59 56 54 52 51 51 51 50 49 47 45 45 48 50 50 48 47 46 46 46 47 48 47 46 44 41 40 41 42
87 85 84 83 82 81 81 80 80 80 80 80 80 80 80 79 79 78 77 76 76 76 76 75 75 75 75 75 75 74 73 72 71 69 68 67 66 65 65 64 64 64 64 64 64 63 61 61 61 61 61 60 58 57 59 60 58 55 53 52 51 50 50 48 46 44 45 45 48 50 50 48 47 46 46 47 48 49 49 47 44 41 41 41 41
86 85 84 83 83 82 82 82 81 81 81 80 80 79 79 78 78 77 76 76 76 76 76 76 76 75 75 74 73 72 71 69 68 67 65 64 63 62 62 62 62 62 62 62 62 62 61 60 59 59 59 59 57 56 57 57 57 55 53 52 51 50 49 47 44 44 45 47 48 49 49 48 47 46 46 46 48 50 50 48 44 43 43 43 42
86 85 85 84 84 83 83 82 82 81 81 80 80 79 79 78 78 78 77 77 77 77 77 76 75 74 73 72 71 70 68 68 67 66 65 64 63 62 62 62 62 62 62 62 62 62 61 60 60 59 58 58 57 56 56 55 55 54 53 53 52 52 50 47 44 43 46 47 47 47 48 49 48 47 46 47 49 50 50 48 46 45 44 44 42
87 86 85 85 84 83 83 82 82 81 81 81 81 80 79 79 79 79 79 79 78 77 76 75 74 73 72 71 70 70 69 68 68 67 66 65 65 64 64 64 63 63 63 63 63 63 63 62 61 60 59 58 58 57 56 55 55 55 55 55 55 53 50 47 44 44 45 47 47 47 48 49 49 48 47 48 49 51 50 49 47 46 45 44 43
86 85 85 84 84 83 83 82 82 82 82 82 82 81 81 80 80 79 79 78 77 76 75 74 73 72 72 72 71 71 71 70 69 68 67 67 66 65 65 65 64 64 63 63 64 64 64 63 62 62 61 59 59 58 57 57 57 57 57 57 56 54 51 49 48 46 45 45 46 47 49 50 50 49 48 48 49 50 50 50 49 47 46 45 43
85 84 84 83 83 83 83 83 83 83 82 82 82 82 81 80 79 78 77 76 76 75 75 75 74 74 73 73 72 72 71 70 69 68 68 67 66 66 65 64 64 64 63 63 63 63 63 63 62 62 61 60 59 58 57 58 58 58 58 58 58 57 55 53 51 47 45 46 48 48 49 50 51 51 50 49 49 49 50 50 50 49 48 47 46
83 83 83 83 83 83 83 83 83 83 83 83 83 82 81 79 78 77 76 76 76 76 76 75 75 74 73 72 72 71 70 69 67 67 66 65 65 64 63 63 62 62 61 61 60 61 61 61 60 60 60 59 58 57 57 57 58 58 59 61 61 61 58 55 52 49 47 47 48 49 48 49 50 51 51 51 50 50 50 50 50 51 50 49 48
Wind_Direction
335 335 334 333 332 332 331 331 330 330 331 331 331 330 330 330 330 330 330 329 328 327 326 325 325 325 325 325 326 326 326 325 325 325 324 323 322 323 324 325 325 326 326 327 327 327 328 326 321 320 324 327 326 322 316 311 306 299 289 281 274 270 265 260 255 252 250 247 245 243 241 239 238 237 235 233 234 235 235 235 236 237 238 239 239
330 330 329 328 328 328 328 327 327 327 327 326 326 326 325 325 325 325 325 324 323 323 322 321 321 321 321 321 322 323 322 321 321 320 320 320 320 321 321 321 321 321 322 322 322 323 323 320 317 319 324 325 324 321 318 314 312 309 303 293 283 274 269 266 262 257 254 251 248 246 244 241 239 239 237 235 234 235 235 235 235 236 237 238 238
330 330 330 331 331 331 331 330 329 329 328 328 328 327 327 327 326 326 326 326 325 325 324 323 322 321 320 320 320 320 321 320 319 318 319 320 320 318 316 315 316 316 317 317 317 318 318 315 314 317 322 322 320 318 316 313 312 311 310 304 295 284 275 270 268 264 260 256 252 248 246 245 242 240 239 238 236 235 235 235 235 235 235 236 237
337 337 337 337 337 336 335 334 334 334 334 334 334 333 333 333 332 332 331 331 330 329 329 328 327 325 324 322 321 321 320 320 319 319 318 316 314 312 310 310 310 310 311 311 312 313 313 312 313 317 319 316 314 314 314 312 311 310 309 308 302 294 286 277 272 269 265 262 258 253 249 247 245 243 240 239 238 236 235 235 235 235 235 235 235
341 341 341 340 340 339 338 338 338 338 338 337 337 336 336 336 335 335 335 334 333 332 331 331 330 329 328 326 325 323 321 320 318 316 312 309 307 307 306 305 305 305 306 308 309 310 311 313 315 316 313 310 310 310 311 311 310 308 306 306 303 298 292 286 279 273 269 265 262 259 254 250 247 246 243 241 239 238 236 236 235 235 235 235 235
343 343 342 342 341 340 340 339 339 338 338 337 336 336 336 337 337 336 336 336 335 335 334 334 334 333 331 330 329 327 325 322 318 314 310 306 305 305 304 303 302 302 304 306 308 310 312 314 313 310 308 307 307 308 308 309 308 307 305 303 302 298 294 290 285 279 273 268 264 262 259 255 251 248 246 244 242 240 238 236 236 236 235 235 235
344 344 344 344 343 342 341 340 338 337 336 335 335 335 335 335 335 335 336 336 336 336 336 336 336 337 336 334 332 330 327 325 322 319 316 312 310 308 306 304 303 304 305 308 310 313 313 312 309 306 305 306 307 308 308 308 307 306 304 302 300 298 295 291 288 284 279 273 268 263 261 259 256 252 249 246 244 243 240 238 236 236 236 235 235
344 344 344 344 343 343 342 340 338 337 336 335 335 334 334 334 334 334 334 335 335 335 335 336 337 338 338 337 336 333 331 328 326 325 323 321 318 316 313 311 311 311 312 314 315 315 313 311 309 309 309 309 310 310 310 309 307 306 303 301 298 297 296 293 290 286 284 279 273 267 262 260 258 256 252 249 246 244 243 241 238 237 236 235 235
343 342 342 342 342 341 340 339 338 338 337 336 336 335 335 334 334 334 334 334 334 334 334 335 336 337 336 336 336 335 334 332 331 330 329 328 327 325 324 323 322 322 321 321 320 319 319 318 319 318 317 316 315 314 312 311 309 307 305 302 299 297 295 294 290 287 283 281 278 273 267 262 259 257 255 253 250 246 244 243 241 239 237 236 235
343 342 342 342 341 341 340 339 339 338 338 338 338 337 337 336 336 335 334 334 334 334 334 334 334 335 335 334 334 333 333 333 333 333 333 333 333 332 331 330 329 327 326 325 325 325 325 326 327 326 325 323 321 319 317 315 312 309 306 304 301 298 296 294 291 287 283 280 278 275 271 266 262 259 256 255 253 251 248 246 244 242 240 238 236
342 342 342 342 342 342 341 341 341 341 341 341 341 341 340 339 337 336 335 335 334 333 333 332 332 332 332 332 332 331 331 332 332 333 333 333 334 334 332 330 329 328 327 327 327 327 329 330 330 330 329 327 325 322 320 317 315 312 308 305 302 299 297 294 291 288 284 280 277 275 273 269 265 262 259 256 254 253 251 249 247 245 243 241 238
339 339 339 340 340 341 342 343 343 343 343 344 344 344 343 341 339 337 335 334 333 332 331 330 330 330 329 329 329 329 329 329 329 330 329 330 330 330 330 329 328 328 326 326 326 326 328 330 330 329 328 326 325 323 321 319 317 314 311 308 305 301 298 295 292 288 285 281 278 275 273 270 267 264 262 259 256 254 253 251 250 248 246 244 241
333 333 334 335 335 337 338 340 341 342 342 344 344 345 344 343 342 340 338 336 334 332 331 329 328 327 326 326 326 326 326 326 326 326 326 325 326 326 327 326 326 326 325 324 324 323 324 325 326 326 326 325 324 323 322 321 319 316 314 310 307 303 299 296 292 288 285 282 279 276 274 272 269 266 264 262 259 256 254 252 251 250 249 246 244
328 327 329 330 331 332 333 334 336 337 338 339 340 341 341 342 342 342 341 340 338 335 332 329 327 326 324 324 323 323 323 323 322 322 322 322 322 322 323 323 322 322 322 322 321 320 321 321 322 322 323 324 324 323 322 321 320 318 316 312 308 303 300 297 293 289 285 282 279 277 275 273 271 268 266 264 262 259 257 254 252 251 250 249 247
325 324 324 326 326 328 329 330 331 333 334 334 335 336 337 338 339 339 339 339 338 337 335 332 329 326 324 322 322 321 321 321 320 319 319 319 319 318 319 319 318 318 318 318 318 317 317 318 318 318 319 321 322 323 323 322 321 320 318 313 307 302 299 297 295 292 288 284 281 278 276 274 272 271 268 266 265 262 260 258 255 253 252 251 249
323 321 321 321 322 324 325 326 328 329 330 331 331 332 332 334 335 336 336 335 335 335 334 333 331 329 325 323 321 320 319 319 318 316 316 316 315 315 314 314 314 314 315 315 315 314 314 314 315 315 316 317 319 321 321 321 320 320 318 314 308 302 299 298 297 295 291 287 283 280 278 276 274 272 270 269 267 265 263 260 258 256 255 253 251
319 318 317 317 318 320 322 323 325 326 328 329 329 329 329 330 331 333 332 331 331 331 331 331 331 330 327 324 322 320 318 317 316 314 313 313 313 312 311 311 310 310 311 311 310 309 310 311 312 312 313 314 316 318 319 319 319 319 318 315 311 306 302 300 299 297 294 291 287 283 280 278 276 274 272 271 269 268 266 264 261 258 257 256 254
316 314 313 313 314 316 318 320 322 323 324 326 327 327 327 327 329 330 330 329 327 327 327 328 328 328 327 325 323 320 318 316 315 314 312 312 311 309 309 308 307 307 308 307 305 305 305 306 308 310 311 312 313 315 316 317 318 318 317 316 312 308 304 302 300 297 295 292 290 286 283 280 278 276 275 273 273 271 270 267 264 261 259 258 257
317 315 312 311 312 313 315 317 318 320 321 323 324 325 325 326 328 329 329 328 326 325 324 325 325 326 325 324 322 320 318 316 314 314 312 311 310 308 307 305 305 306 305 303 301 301 301 303 304 306 308 309 311 312 313 316 317 316 316 316 313 308 304 302 301 298 295 293 291 289 286 284 281 279 278 276 276 275 273 271 268 265 263 260 259
320 318 315 313 313 313 314 315 316 317 319 320 322 322 323 324 326 328 328 327 325 324 323 323 323 323 323 322 319 318 317 315 313 312 311 310 308 307 304 303 303 304 302 300 300 299 299 300 302 303 306 307 308 309 311 315 315 315 315 316 314 309 304 302 301 299 295 293 291 289 287 286 284 282 281 279 279 278 277 274 271 268 266 264 262
319 318 316 314 314 313 314 314 315 316 317 318 320 320 321 323 325 326 326 326 325 324 322 322 322 321 320 319 317 315 314 313 312 310 309 307 306 304 302 301 301 300 299 298 299 298 298 299 300 302 304 305 305 307 311 313 314 314 314 315 314 310 305 301 300 300 296 293 291 290 288 287 286 285 283 282 281 280 279 277 275 272 269 268 266
318 317 316 314 313 313 313 313 313 314 315 316 318 319 319 321 323 324 325 325 325 324 322 320 320 319 318 317 315 313 312 311 310 308 306 305 304 303 301 299 298 297 296 296 296 295 296 298 299 301 303 303 304 307 309 311 312 313 314 314 314 310 305 301 300 300 297 294 292 290 289 288 287 286 285 284 282 282 281 279 277 275 273 272 271
317 316 314 313 313 312 312 311 311 312 313 315 316 317 317 319 321 322 323 323 323 323 321 319 318 316 315 314 313 311 310 310 308 306 305 303 303 302 301 298 296 294 294 294 294 294 295 297 298 300 301 302 304 306 308 309 311 313 314 314 313 310 306 303 301 299 298 295 292 291 289 288 287 286 285 284 284 283 282 281 278 276 275 274 273
315 314 313 312 311 310 310 310 310 310 312 313 315 315 315 317 318 319 320 321 321 321 319 317 315 314 313 312 310 309 309 309 308 305 303 302 302 302 301 299 296 294 292 292 293 294 295 296 297 299 301 302 304 306 306 308 311 312 313 314 313 310 307 303 300 299 297 295 292 290 289 288 287 287 285 285 284 284 283 281 279 278 277 276 274
313 312 312 311 309 309 309 308 308 309 310 312 313 313 313 314 315 316 317 318 319 318 317 315 313 312 310 309 308 307 307 308 307 305 303 303 303 302 301 298 295 294 293 293 293 294 295 295 297 299 301 302 304 305 306 308 310 312 314 314 312 309 307 303 300 298 297 295 292 289 288 287 287 287 286 286 285 284 283 281 280 280 280 279 277
311 311 311 310 309 308 308 308 308 308 310 311 313 313 313 313 313 314 314 315 316 315 314 313 311 309 308 306 305 305 306 307 307 305 303 303 303 301 299 297 294 293 293 293 293 294 295 295 297 299 300 302 303 304 305 307 309 311 313 312 310 308 306 303 301 299 298 297 293 288 287 287 287 286 286 286 286 285 284 282 281 281 281 280 279
310 310 309 309 309 309 308 308 308 309 311 312 313 313 313 312 312 312 312 312 313 313 312 310 308 307 306 304 303 304 305 306 306 305 303 303 302 301 300 298 296 294 293 293 293 293 294 294 295 297 298 299 301 301 302 305 308 310 311 311 309 307 305 303 301 300 300 299 295 289 287 286 286 286 286 286 286 286 285 284 282 282 282 282 281
309 309 309 309 309 309 309 310 310 311 312 312 312 312 312 311 310 310 309 309 310 310 309 308 307 306 304 302 302 304 305 306 305 304 303 302 302 301 300 299 297 296 294 293 293 292 292 292 294 295 296 298 300 301 302 305 307 309 310 309 308 307 304 301 300 300 300 299 296 290 287 285 285 285 285 285 285 286 285 284 283 283 283 284 283
309 309 309 309 309 309 310 311 311 312 312 311 310 310 309 309 308 307 307 307 307 308 307 306 305 304 303 302 303 304 304 304 303 302 301 301 301 301 300 298 297 295 293 292 291 290 290 291 293 294 295 297 299 300 301 303 305 307 307 307 307 305 302 300 299 299 300 299 295 291 287 285 285 285 284 284 285 285 285 284 283 283 284 284 284
309 309 309 309 309 309 310 310 310 310 310 309 308 307 307 306 306 305 304 305 306 306 305 304 304 304 304 303 303 303 302 302 301 300 300 300 300 299 298 296 294 292 291 289 289 289 289 289 291 292 293 294 296 297 298 300 303 303 303 304 304 303 300 298 298 298 298 296 294 292 289 285 284 284 284 284 285 285 285 284 283 283 284 284 285
308 308 308 308 309 309 309 308 308 307 307 306 306 305 304 304 303 303 303 304 305 304 304 304 304 304 303 302 302 301 301 300 299 298 298 298 299 298 297 295 293 291 290 288 288 287 287 288 289 290 290 291 292 293 295 297 298 298 299 300 300 299 297 296 296 296 296 294 294 293 290 286 284 283 284 284 284 285 284 283 283 283 284 284 285
307 307 308 308 308 307 307 306 305 304 304 304 303 303 302 302 302 302 302 303 303 303 304 305 304 304 303 301 301 300 300 299 297 296 296 296 297 297 296 295 293 291 290 288 287 287 287 288 288 289 289 290 291 292 293 294 295 295 296 297 297 295 294 293 294 294 293 293 293 293 290 287 285 284 283 283 284 284 284 283 283 283 283 284 285
306 307 306 306 306 305 304 304 303 303 303 302 302 301 301 301 301 301 301 301 301 302 303 303 303 302 302 301 300 300 299 297 296 295 295 295 295 295 295 294 293 291 290 288 287 286 286 287 287 287 287 289 291 292 292 293 293 293 294 295 295 293 292 291 291 291 291 291 291 290 289 288 287 286 285 284 283 283 283 282 282 282 283 283 284
305 305 305 305 304 303 303 303 302 302 302 301 301 300 300 300 300 300 300 301 301 302 302 302 302 301 301 300 300 299 298 297 295 294 294 294 294 294 294 293 292 291 290 288 287 286 286 286 285 285 286 287 288 289 290 291 291 292 294 294 293 292 291 290 289 289 289 289 288 288 287 288 288 287 286 285 284 282 281 281 280 280 281 282 283
305 305 305 304 304 303 303 302 302 302 301 301 300 300 300 300 300 300 300 300 301 301 301 301 301 301 301 301 300 299 298 297 296 295 294 294 293 293 293 292 291 290 289 288 287 286 286 285 285 285 286 286 286 287 288 289 289 290 291 292 291 290 290 289 288 288 288 287 286 285 285 286 287 287 287 286 284 283 282 281 279 278 278 279 281
306 306 305 305 304 303 303 302 301 301 300 300 299 299 299 299 300 300 300 300 300 300 300 300 300 301 300 300 299 298 297 296 295 295 294 293 293 292 291 290 289 289 288 288 287 286 286 285 285 285 285 286 286 287 288 288 289 289 289 289 289 289 288 287 287 287 286 286 284 283 283 283 284 285 285 285 284 284 284 283 280 276 276 278 280
306 306 306 305 304 303 302 301 300 300 299 299 298 298 299 299 300 300 300 299 299 299 299 299 300 300 300 299 298 296 295 294 294 293 293 292 292 291 290 290 289 288 288 287 287 286 286 285 285 285 285 285 286 287 288 288 288 288 288 287 287 286 285 285 285 285 284 283 282 280 280 280 281 282 283 284 284 285 285 285 281 278 276 278 280
306 306 305 305 304 303 302 301 300 299 299 298 297 297 297 298 299 299 299 299 299 299 299 299 299 299 298 297 296 295 294 293 293 292 292 291 290 290 289 289 288 287 287 286 286 285 285 285 285 286 286 286 286 287 287 287 287 287 288 287 286 284 282 282 283 282 281 280 278 277 276 276 277 279 280 282 283 284 285 285 283 281 279 278 279
305 305 305 304 303 303 302 301 300 299 298 297 297 296 297 297 298 298 298 298 299 299 299 298 298 297 296 295 294 293 293 292 292 292 291 291 290 289 289 288 287 287 286 285 285 285 285 284 285 285 285 285 286 286 286 286 285 286 287 287 284 282 281 281 280 279 278 276 274 272 272 272 273 275 277 279 281 283 285 285 284 283 282 280 278
305 304 304 303 303 302 301 300 299 298 297 297 297 297 297 297 298 298 298 298 298 298 298 297 297 295 294 293 293 292 292 291 291 290 290 290 289 289 288 287 287 286 286 285 284 284 284 284 284 284 284 284 285 285 285 284 284 284 285 284 282 281 281 280 278 276 274 272 270 268 268 269 270 272 274 277 280 282 283 283 284 283 281 280 278
304 304 303 302 302 301 300 299 298 298 297 297 297 297 298 298 298 298 298 298 298 298 297 296 296 295 294 293 293 292 291 291 290 290 289 289 288 288 287 287 286 286 285 284 283 283 282 282 282 282 282 282 283 283 283 283 283 282 282 280 280 280 280 279 276 275 273 271 269 268 267 268 269 271 273 276 279 279 280 281 282 281 280 280 279
303 302 302 301 301 300 299 299 298 298 298 298 298 297 298 298 298 298 298 298 297 297 296 296 295 295 294 294 293 292 292 291 290 289 289 288 287 287 286 286 286 285 284 283 282 282 281 281 280 280 280 280 280 281 281 281 281 280 278 277 278 279 279 277 276 275 272 269 268 268 268 267 268 270 272 274 276 277 278 279 280 280 281 281 280
302 301 301 301 300 300 299 299 299 298 298 298 298 297 297 297 297 297 296 296 296 296 295 295 295 294 294 294 293 292 292 291 290 289 288 287 287 286 285 285 284 284 283 282 281 281 280 280 279 279 278 278 278 279 279 278 278 278 278 277 276 276 276 275 275 275 272 270 268 267 267 267 268 268 270 271 273 275 276 277 278 279 281 281 280
301 301 301 301 300 300 300 299 299 298 298 298 297 297 297 296 296 295 295 295 295 295 295 294 294 293 293 293 292 292 291 290 290 289 288 287 286 285 285 284 283 283 282 281 280 280 279 279 278 278 277 277 277 277 276 276 277 277 277 276 274 273 272 272 272 273 271 269 267 266 266 267 267 267 268 269 271 273 274 274 275 278 280 281 280
301 301 301 300 300 299 299 299 298 298 297 297 297 296 296 296 295 295 295 295 295 295 295 294 294 293 292 291 291 291 290 289 289 288 287 286 285 285 284 283 283 282 281 280 280 279 278 277 277 277 276 276 275 275 275 276 276 276 275 274 273 272 271 270 270 269 267 266 265 266 266 266 266 266 266 267 269 270 271 272 273 275 278 279 279
301 301 300 300 300 299 299 299 298 298 297 297 297 296 296 296 296 296 296 296 296 295 295 295 294 293 293 292 291 291 290 289 289 288 287 286 285 285 284 283 282 281 280 279 279 278 277 276 275 275 275 275 274 273 273 274 275 275 274 274 273 272 270 269 267 266 265 264 264 265 266 267 266 265 265 266 267 269 270 271 273 275 276 278 278
301 301 300 300 300 299 299 299 299 298 298 297 297 297 297 297 297 297 297 297 297 296 296 295 295 294 293 293 292 292 291 290 290 289 288 287 286 285 284 283 282 281 280 279 278 277 277 276 274 273 273 273 272 272 271 272 272 273 273 272 271 270 269 268 266 264 264 264 264 264 265 266 266 265 265 265 266 267 269 271 272 274 275 277 277
300 300 300 300 300 299 299 299 299 298 298 298 298 298 299 299 299 299 299 298 298 297 296 296 295 295 294 294 293 293 292 291 291 290 289 288 287 285 284 283 281 280 279 278 277 276 275 274 273 272 271 270 270 270 270 270 270 269 269 269 269 269 269 269 267 264 262 263 264 264 264 264 265 265 265 265 266 267 269 271 272 273 274 276 277
300 300 300 300 300 300 299 299 299 299 299 299 299 299 299 299 299 299 299 298 298 297 297 296 296 295 295 295 294 293 292 291 290 289 288 287 286 285 284 282 281 280 278 277 276 275 274 273 272 271 270 269 268 267 267 267 267 267 268 269 269 270 269 268 266 263 262 262 262 262 262 263 265 265 265 265 265 267 269 272 273 274 275 277 278
300 300 300 300 300 299 299 299 299 299 300 300 300 300 300 300 299 299 299 298 298 298 297 297 296 296 295 294 293 292 291 290 290 289 288 287 285 284 283 282 280 279 278 276 275 274 274 273 272 271 270 269 268 266 266 265 265 266 267 267 268 267 266 264 263 262 261 261 260 260 260 262 264 265 266 266 266 267 269 271 272 274 276 277 278
300 300 300 300 300 300 300 300 300 300 301 301 301 301 301 300 300 300 299 299 298 298 297 297 296 295 294 293 292 291 290 290 289 288 288 286 285 284 283 281 280 279 278 276 275 274 274 273 272 272 271 269 268 266 265 264 263 264 263 263 263 264 264 264 264 262 261 260 260 261 261 261 262 263 265 266 267 268 269 270 271 273 275 276 277
Height
10658 10656 10654 10652 10650 10648 10646 10644 10643 10641 10640 10638 10636 10634 10632 10631 10629 10627 10626 10625 10624 10622 10620 10618 10616 10614 10612 10610 10609 10608 10606 10604 10603 10602 10600 10599 10597 10595 10594 10592 10591 10590 10588 10587 10585 10583 10581 10580 10578 10576 10574 10573 10572 10570 10569 10567 10566 10564 10563 10563 10562 10562 10561 10561 10562 10561 10561 10562 10564 10566 10568 10571 10574 10576 10580 10584 10587 10591 10595 10599 10602 10605 10609 10613 10617
10657 10655 10653 10650 10648 10646 10644 10642 10640 10638 10637 10635 10634 10632 10630 10628 10626 10625 10623 10622 10620 10619 10617 10615 10613 10611 10608 10606 10605 10604 10603 10601 10599 10598 10596 10595 10593 10592 10590 10589 10587 10586 10585 10583 10582 10580 10578 10576 10575 10573 10571 10569 10568 10567 10565 10563 10562 10560 10559 10558 10557 10557 10556 10556 10556 10555 10555 10555 10557 10558 10559 10561 10564 10566 10570 10575 10578 10581 10585 10588 10592 10595 10599 10603 10607
10655 10653 10651 10648 10646 10644 10641 10639 10637 10635 10634 10632 10631 10629 10628 10626 10624 10622 10621 10619 10617 10615 10613 10611 10610 10608 10605 10603 10601 10600 10598 10597 10595 10593 10591 10590 10589 10587 10586 10585 10584 10583 10581 10580 10578 10576 10575 10573 10571 10569 10567 10566 10564 10563 10561 10559 10558 10556 10555 10554 10553 10552 10552 10551 10550 10550 10549 10549 10550 10550 10551 10553 10555 10557 10560 10563 10568 10572 10575 10578 10582 10585 10589 10593 10597
10654 10651 10649 10646 10644 10642 10640 10637 10635 10633 10631 10629 10627 10626 10624 10623 10622 10620 10618 10616 10614 10612 10610 10608 10607 10605 10603 10601 10598 10596 10594 10593 10591 10589 10587 10586 10584 10583 10582 10581 10580 10579 10577 10576 10574 10572 10571 10569 10567 10565 10564 10562 10561 10559 10557 10555 10553 10552 10551 10549 10548 10547 10546 10546 10545 10545 10544 10543 10543 10543 10544 10545 10546 10548 10550 10553 10556 10561 10565 10568 10572 10575 10579 10583 10587
10652 10650 10648 10645 10643 10641 10639 10636 10634 10631 10629 10627 10625 10623 10622 10620 10619 10617 10616 10614 10612 10610 10608 10606 10604 10602 10600 10598 10596 10594 10591 10589 10587 10585 10584 10582 10581 10579 10578 10577 10576 10574 10573 10571 10570 10568 10566 10564 10562 10561 10560 10558 10557 10555 10553 10551 10549 10547 10546 10545 10544 10542 10541 10540 10540 10539 10538 10538 10537 10537 10537 10538 10539 10540 10542 10544 10546 10549 10553 10558 10561 10565 10569 10572 10576
10650 10648 10646 10644 10642 10640 10637 10635 10632 10630 10628 10626 10624 10622 10620 10618 10616 10615 10613 10611 10610 10608 10605 10603 10601 10600 10597 10595 10593 10591 10589 10586 10584 10582 10580 10579 10577 10575 10574 10573 10571 10570 10568 10567 10565 10563 10561 10559 10558 10557 10555 10554 10552 10551 10549 10546 10544 10542 10541 10540 10539 10538 10537 10535 10535 10534 10533 10532 10531 10531 10531 10532 10532 10533 10534 10536 10538 10540 10543 10546 10550 10554 10558 10562 10566
10649 10647 10644 10642 10640 10638 10636 10634 10631 10629 10627 10624 10622 10620 10618 10616 10614 10613 10611 10609 10607 10605 10603 10601 10599 10597 10595 10593 10591 10589 10586 10584 10582 10579 10577 10575 10573 10572 10570 10568 10567 10565 10564 10562 10560 10558 10557 10555 10554 10552 10551 10549 10547 10546 10544 10542 10540 10538 10536 10535 10534 10533 10532 10531 10529 10528 10527 10526 10526 10526 10525 10525 10525 10526 10526 10527 10529 10531 10533 10536 10539 10543 10546 10550 10555
10647 10645 10642 10640 10638 10636 10634 10632 10630 10628 10626 10623 10621 10618 10616 10614 10612 10611 10609 10607 10605 10603 10601 10599 10597 10595 10593 10590 10588 10586 10584 10582 10579 10577 10575 10573 10571 10569 10567 10565 10563 10561 10559 10557 10556 10554 10553 10551 10549 10548 10546 10544 10542 10540 10539 10537 10535 10533 10531 10530 10529 10527 10526 10525 10524 10523 10522 10521 10520 10520 10520 10519 10519 10519 10519 10519 10521 10522 10524 10526 10529 10532 10534 10538 10543
10645 10643 10641 10638 10636 10634 10632 10630 10628 10626 10624 10622 10620 10617 10615 10613 10611 10609 10607 10605 10603 10601 10599 10596 10594 10592 10590 10588 10586 10584 10581 10579 10577 10574 10572 10570 10568 10566 10564 10561 10559 10557 10555 10554 10552 10550 10549 10547 10545 10543 10541 10539 10537 10535 10534 10532 10530 10529 10527 10525 10523 10522 10521 10520 10519 10518 10517 10515 10514 10514 10513 10513 10513 10512 10512 10512 10513 10514 10515 10516 10519 10521 10523 10526 10531
10644 10641 10639 10636 10634 10632 10630 10627 10625 10623 10621 10619 10617 10615 10613 10611 10609 10606 10604 10602 10600 10598 10596 10594 10592 10589 10587 10585 10583 10580 10578 10576 10574 10572 10569 10567 10565 10562 10560 10558 10556 10554 10552 10550 10548 10547 10545 10542 10540 10538 10536 10534 10532 10530 10528 10527 10525 10524 10522 10520 10518 10516 10515 10514 10513 10512 10511 10510 10509 10508 10507 10507 10506 10506 10506 10506 10506 10506 10507 10508 10509 10511 10513 10515 10520
10642 10640 10637 10635 10632 10630 10628 10625 10623 10621 10619 10617 10615 10613 10611 10608 10606 10603 10601 10599 10597 10595 10592 10590 10588 10586 10584 10582 10579 10577 10574 10572 10570 10568 10566 10564 10562 10560 10558 10556 10553 10551 10548 10546 10544 10542 10540 10538 10536 10533 10531 10529 10527 10525 10523 10522 10520 10518 10517 10515 10513 10511 10509 10508 10507 10505 10504 10503 10503 10502 10500 10500 10500 10500 10499 10499 10499 10499 10499 10500 10501 10502 10503 10505 10509
10641 10639 10636 10634 10632 10629 10627 10624 10622 10619 10617 10615 10613 10611 10608 10606 10604 10601 10598 10596 10593 10591 10589 10586 10584 10582 10580 10578 10576 10573 10571 10568 10566 10564 10562 10560 10558 10557 10555 10552 10550 10547 10545 10542 10540 10538 10536 10534 10532 10529 10527 10525 10523 10520 10518 10516 10514 10512 10511 10509 10507 10505 10503 10502 10500 10499 10498 10496 10496 10495 10494 10493 10493 10493 10492 10491 10492 10492 10492 10492 10493 10493 10494 10495 10498
10639 10637 10635 10633 10630 10628 10625 10623 10621 10618 10616 10613 10611 10608 10606 10603 10601 10598 10595 10592 10590 10587 10585 10582 10580 10578 10575 10573 10571 10569 10567 10564 10562 10559 10558 10555 10554 10552 10550 10548 10546 10544 10541 10538 10535 10533 10532 10530 10528 10525 10523 10521 10518 10516 10513 10511 10508 10506 10504 10502 10500 10499 10497 10495 10493 10492 10491 10490 10489 10488 10487 10486 10486 10487 10486 10485 10484 10484 10484 10485 10485 10485 10485 10486 10488
10638 10635 10632 10630 10628 10625 10622 10620 10618 10615 10613 10610 10608 10605 10602 10600 10597 10594 10591 10588 10586 10583 10580 10578 10575 10573 10571 10568 10566 10565 10563 10560 10557 10555 10553 10551 10549 10547 10545 10543 10541 10539 10537 10534 10531 10528 10526 10524 10523 10521 10518 10516 10513 10511 10508 10506 10503 10501 10499 10496 10494 10492 10490 10488 10486 10485 10484 10483 10482 10481 10480 10479 10478 10479 10479 10478 10477 10477 10476 10476 10477 10477 10476 10477 10479
10636 10632 10629 10627 10624 10622 10619 10616 10614 10611 10609 10606 10603 10601 10598 10595 10592 10589 10586 10583 10581 10578 10576 10573 10570 10568 10565 10563 10560 10559 10557 10555 10553 10550 10548 10546 10543 10541 10539 10537 10535 10533 10532 10529 10526 10523 10520 10519 10517 10515 10513 10511 10508 10506 10503 10500 10497 10495 10493 10490 10488 10485 10483 10481 10479 10477 10476 10475 10474 10474 10473 10472 10471 10470 10471 10471 10470 10469 10469 10468 10469 10469 10468 10468 10470
10634 10631 10627 10624 10622 10619 10616 10613 10611 10608 10605 10602 10599 10596 10593 10590 10588 10585 10582 10579 10576 10573 10570 10568 10565 10563 10560 10557 10554 10552 10550 10549 10547 10545 10543 10541 10538 10536 10534 10531 10529 10527 10526 10523 10520 10517 10514 10513 10511 10509 10507 10505 10503 10501 10498 10494 10491 10489 10487 10484 10481 10479 10477 10475 10472 10470 10469 10468 10467 10466 10465 10465 10464 10463 10463 10463 10462 10462 10461 10461 10461 10460 10459 10459 10461
10632 10629 10626 10622 10619 10616 10614 10611 10608 10604 10602 10599 10596 10593 10590 10587 10584 10581 10578 10575 10571 10568 10565 10562 10559 10556 10554 10551 10549 10545 10542 10541 10540 10538 10536 10535 10533 10530 10527 10526 10523 10521 10520 10518 10515 10511 10508 10506 10504 10502 10500 10498 10497 10495 10492 10489 10486 10483 10480 10477 10474 10472 10471 10469 10466 10464 10462 10461 10460 10459 10458 10457 10456 10455 10456 10456 10455 10454 10453 10453 10453 10452 10451 10451 10452
10630 10627 10623 10620 10617 10614 10611 10609 10605 10602 10599 10596 10593 10590 10587 10584 10581 10578 10575 10571 10568 10564 10561 10558 10554 10550 10547 10545 10542 10539 10534 10532 10531 10530 10529 10527 10525 10522 10520 10518 10516 10514 10513 10511 10508 10505 10503 10500 10499 10496 10493 10491 10490 10488 10486 10483 10480 10477 10474 10471 10468 10466 10464 10462 10460 10458 10456 10454 10452 10451 10450 10449 10448 10448 10448 10448 10447 10446 10445 10444 10444 10444 10443 10443 10444
10626 10623 10620 10617 10613 10610 10608 10605 10602 10599 10596 10593 10590 10587 10583 10580 10577 10574 10571 10568 10564 10560 10557 10554 10551 10547 10542 10539 10535 10532 10528 10524 10521 10521 10520 10519 10517 10515 10512 10510 10507 10506 10505 10502 10500 10498 10496 10494 10493 10491 10488 10485 10482 10481 10479 10477 10474 10470 10468 10465 10462 10460 10457 10455 10454 10452 10449 10447 10445 10444 10442 10442 10441 10440 10440 10440 10439 10438 10437 10436 10436 10436 10435 10435 10436
10620 10618 10615 10612 10608 10605 10602 10600 10597 10594 10591 10589 10586 10583 10579 10575 10572 10569 10566 10563 10560 10556 10551 10548 10546 10543 10539 10535 10531 10527 10523 10519 10515 10512 10511 10509 10508 10507 10504 10501 10499 10498 10496 10493 10491 10489 10488 10487 10485 10484 10482 10479 10475 10473 10472 10471 10467 10464 10461 10459 10456 10453 10450 10448 10447 10445 10443 10441 10439 10437 10435 10434 10433 10432 10432 10432 10431 10430 10428 10428 10427 10427 10427 10427 10427
10614 10611 10609 10606 10603 10600 10597 10594 10591 10588 10585 10583 10580 10577 10573 10570 10567 10563 10560 10557 10554 10550 10546 10542 10539 10536 10533 10530 10526 10522 10519 10515 10510 10506 10504 10501 10500 10499 10497 10494 10492 10489 10486 10485 10483 10480 10478 10478 10477 10476 10475 10473 10469 10466 10464 10463 10461 10457 10455 10453 10450 10447 10444 10442 10440 10438 10436 10435 10433 10431 10429 10427 10426 10425 10424 10423 10423 10422 10420 10419 10419 10419 10418 10418 10419
10608 10605 10603 10600 10597 10594 10591 10587 10584 10581 10578 10575 10573 10570 10566 10563 10560 10557 10554 10551 10547 10544 10540 10536 10533 10530 10526 10523 10520 10516 10513 10509 10505 10500 10497 10494 10491 10491 10490 10487 10486 10482 10478 10476 10475 10472 10470 10469 10468 10468 10467 10465 10462 10459 10457 10455 10453 10450 10448 10446 10444 10441 10437 10435 10433 10431 10430 10428 10426 10424 10422 10421 10419 10417 10416 10415 10415 10414 10413 10412 10411 10410 10410 10410 10410
10604 10601 10598 10594 10591 10588 10585 10582 10578 10575 10571 10568 10565 10562 10558 10554 10551 10549 10546 10543 10540 10536 10532 10529 10526 10523 10519 10515 10512 10508 10505 10503 10498 10494 10491 10487 10484 10483 10482 10479 10478 10476 10472 10468 10466 10465 10463 10461 10460 10459 10458 10456 10454 10452 10449 10446 10444 10443 10441 10439 10437 10434 10431 10428 10426 10424 10422 10421 10419 10417 10415 10414 10412 10411 10409 10408 10407 10407 10406 10404 10403 10402 10402 10402 10402
10600 10597 10594 10590 10587 10583 10580 10576 10572 10569 10565 10562 10558 10554 10550 10546 10542 10539 10537 10535 10532 10529 10525 10521 10519 10516 10512 10508 10504 10500 10496 10494 10490 10486 10483 10481 10477 10476 10474 10471 10468 10467 10465 10462 10459 10458 10456 10454 10452 10451 10449 10447 10445 10443 10440 10438 10436 10434 10433 10431 10429 10427 10424 10421 10419 10417 10415 10414 10413 10410 10408 10407 10406 10404 10402 10401 10400 10400 10399 10397 10396 10395 10394 10394 10394
10594 10591 10588 10585 10582 10578 10574 10570 10566 10562 10559 10556 10552 10548 10544 10539 10535 10531 10529 10527 10524 10521 10517 10513 10510 10508 10505 10501 10497 10492 10488 10485 10482 10478 10475 10474 10471 10468 10466 10463 10460 10457 10456 10455 10453 10451 10449 10446 10444 10443 10441 10439 10436 10433 10430 10429 10428 10426 10425 10424 10422 10420 10417 10415 10412 10410 10408 10407 10406 10404 10402 10400 10399 10397 10395 10393 10393 10392 10392 10391 10389 10388 10386 10386 10387
10587 10584 10580 10577 10574 10572 10569 10565 10561 10556 10552 10549 10546 10542 10538 10533 10529 10525 10522 10519 10516 10513 10510 10506 10502 10499 10496 10492 10489 10484 10480 10476 10472 10469 10466 10465 10463 10460 10457 10456 10453 10450 10449 10447 10445 10444 10442 10438 10436 10435 10433 10430 10427 10423 10420 10420 10419 10418 10417 10416 10415 10413 10410 10408 10405 10402 10401 10401 10399 10397 10395 10394 10393 10390 10388 10386 10385 10385 10384 10384 10382 10381 10379 10378 10379
10579 10576 10573 10569 10565 10563 10560 10558 10554 10549 10545 10541 10538 10534 10531 10527 10522 10517 10514 10510 10507 10505 10502 10499 10495 10492 10488 10484 10480 10476 10472 10468 10463 10460 10458 10456 10454 10451 10448 10446 10445 10443 10441 10439 10438 10437 10435 10431 10429 10427 10424 10421 10419 10415 10412 10412 10411 10410 10409 10408 10407 10405 10403 10401 10398 10396 10394 10394 10392 10390 10388 10387 10386 10384 10382 10379 10377 10377 10377 10376 10375 10374 10372 10371 10371
10569 10567 10564 10561 10557 10553 10550 10548 10545 10541 10537 10532 10528 10525 10522 10518 10514 10509 10505 10502 10498 10496 10493 10489 10486 10483 10480 10476 10472 10468 10464 10459 10455 10451 10449 10447 10444 10441 10438 10436 10435 10435 10433 10431 10430 10429 10427 10424 10422 10419 10415 10412 10410 10406 10403 10403 10403 10402 10401 10400 10398 10397 10395 10393 10391 10389 10387 10387 10385 10383 10381 10381 10379 10378 10376 10373 10371 10370 10370 10369 10368 10367 10366 10364 10364
10558 10556 10553 10551 10549 10545 10540 10536 10533 10530 10527 10524 10520 10516 10513 10509 10505 10499 10495 10492 10490 10487 10483 10479 10476 10474 10471 10467 10464 10461 10456 10451 10446 10443 10440 10438 10435 10433 10430 10427 10426 10426 10425 10424 10423 10421 10419 10417 10415 10412 10406 10403 10403 10398 10394 10394 10395 10394 10393 10391 10390 10389 10387 10386 10384 10382 10381 10380 10378 10375 10374 10373 10372 10371 10370 10367 10365 10364 10363 10362 10361 10360 10359 10357 10357
10549 10546 10543 10540 10538 10535 10531 10526 10522 10518 10516 10514 10511 10508 10504 10500 10495 10489 10484 10481 10479 10476 10474 10470 10466 10463 10460 10456 10453 10452 10449 10444 10439 10434 10431 10429 10427 10424 10422 10420 10419 10418 10417 10416 10415 10413 10411 10409 10408 10405 10400 10397 10396 10393 10388 10387 10388 10386 10384 10384 10382 10381 10379 10378 10377 10375 10374 10372 10370 10369 10368 10366 10365 10364 10363 10361 10359 10357 10356 10355 10354 10354 10352 10351 10350
10539 10536 10533 10529 10526 10523 10520 10516 10512 10508 10505 10503 10501 10498 10495 10491 10486 10478 10472 10471 10467 10462 10460 10459 10456 10452 10450 10447 10444 10442 10440 10437 10433 10428 10423 10420 10418 10415 10413 10411 10410 10409 10408 10408 10406 10405 10402 10401 10400 10397 10393 10390 10390 10387 10383 10382 10381 10378 10377 10376 10375 10374 10372 10371 10370 10369 10366 10364 10363 10362 10361 10359 10358 10357 10356 10354 10352 10351 10350 10348 10347 10347 10346 10344 10343
10530 10526 10522 10518 10514 10511 10508 10505 10501 10497 10494 10492 10490 10487 10485 10482 10476 10468 10461 10460 10458 10452 10447 10445 10442 10440 10438 10436 10434 10432 10430 10426 10423 10420 10416 10413 10410 10407 10405 10402 10400 10399 10398 10398 10397 10395 10393 10392 10391 10388 10384 10381 10380 10379 10377 10375 10373 10370 10369 10368 10367 10365 10364 10364 10363 10362 10359 10357 10356 10355 10354 10352 10351 10350 10349 10348 10346 10345 10343 10342 10341 10340 10339 10337 10336
10520 10515 10511 10507 10503 10499 10496 10493 10489 10486 10483 10480 10477 10475 10473 10471 10468 10461 10453 10448 10446 10443 10439 10435 10432 10429 10426 10424 10423 10422 10420 10417 10413 10410 10407 10404 10402 10400 10397 10394 10391 10389 10388 10388 10387 10385 10384 10383 10381 10377 10375 10373 10371 10369 10367 10365 10363 10362 10361 10360 10358 10357 10356 10356 10355 10354 10352 10350 10349 10347 10346 10345 10344 10343 10341 10341 10340 10338 10337 10336 10335 10333 10332 10330 10329
10509 10506 10502 10498 10493 10489 10484 10481 10477 10473 10470 10467 10464 10463 10461 10459 10457 10453 10447 10440 10435 10431 10428 10425 10422 10418 10414 10411 10410 10409 10408 10406 10404 10401 10398 10395 10393 10391 10389 10386 10383 10380 10378 10377 10376 10374 10374 10373 10370 10367 10365 10365 10363 10360 10358 10356 10354 10353 10352 10351 10350 10348 10347 10347 10347 10346 10344 10343 10341 10339 10338 10337 10337 10335 10335 10334 10333 10332 10331 10330 10329 10327 10325 10323 10322
10498 10494 10491 10486 10482 10477 10473 10468 10464 10461 10457 10454 10451 10449 10447 10445 10443 10441 10438 10433 10428 10422 10417 10414 10411 10407 10402 10398 10397 10396 10394 10392 10391 10389 10387 10386 10383 10381 10380 10377 10374 10372 10369 10367 10366 10364 10363 10362 10360 10356 10354 10354 10353 10351 10350 10348 10345 10344 10344 10342 10341 10339 10338 10338 10338 10337 10336 10335 10333 10332 10331 10330 10329 10328 10328 10327 10326 10325 10324 10324 10323 10321 10318 10316 10315
10484 10481 10477 10473 10469 10465 10461 10457 10453 10448 10444 10441 10438 10435 10433 10432 10430 10428 10426 10423 10419 10415 10409 10404 10400 10396 10391 10387 10386 10385 10382 10380 10378 10376 10375 10374 10372 10370 10369 10367 10365 10363 10360 10357 10355 10353 10352 10351 10349 10347 10344 10343 10341 10340 10340 10339 10336 10334 10334 10334 10332 10331 10329 10329 10329 10329 10328 10327 10325 10324 10323 10322 10322 10321 10320 10320 10319 10318 10317 10317 10316 10314 10311 10309 10308
10470 10466 10463 10459 10455 10451 10448 10444 10441 10437 10433 10430 10426 10423 10420 10418 10416 10414 10412 10410 10407 10404 10401 10396 10391 10386 10382 10377 10375 10373 10371 10368 10366 10365 10364 10362 10360 10359 10357 10355 10354 10352 10349 10346 10344 10342 10340 10338 10337 10336 10334 10332 10331 10330 10330 10328 10326 10325 10325 10325 10324 10322 10321 10320 10320 10320 10319 10318 10317 10316 10316 10315 10314 10314 10313 10312 10311 10311 10310 10310 10308 10306 10305 10303 10302
10457 10453 10449 10445 10441 10437 10434 10431 10428 10425 10421 10418 10415 10412 10409 10406 10404 10401 10399 10397 10394 10391 10389 10385 10381 10377 10373 10369 10365 10363 10360 10356 10354 10353 10351 10350 10349 10347 10345 10343 10341 10339 10338 10335 10332 10331 10329 10326 10325 10324 10322 10320 10320 10320 10320 10318 10317 10315 10315 10316 10315 10313 10311 10312 10311 10311 10310 10310 10309 10308 10308 10307 10307 10307 10306 10305 10304 10304 10304 10303 10301 10300 10298 10297 10295
10443 10439 10436 10432 10428 10424 10421 10418 10415 10412 10408 10405 10402 10400 10397 10395 10393 10390 10387 10384 10381 10378 10376 10372 10369 10365 10363 10360 10357 10353 10350 10346 10343 10341 10339 10337 10336 10334 10333 10332 10329 10327 10326 10324 10321 10320 10318 10316 10314 10313 10311 10308 10308 10309 10309 10309 10307 10306 10306 10306 10304 10302 10302 10303 10303 10302 10301 10300 10300 10300 10299 10299 10299 10299 10299 10298 10297 10298 10297 10296 10294 10293 10292 10290 10288
10429 10425 10422 10418 10414 10411 10407 10405 10402 10399 10396 10393 10390 10387 10385 10382 10380 10377 10374 10371 10368 10365 10362 10359 10355 10352 10349 10347 10346 10343 10340 10337 10334 10331 10328 10325 10323 10321 10320 10319 10318 10316 10314 10312 10310 10309 10307 10305 10304 10303 10300 10298 10297 10297 10297 10298 10298 10298 10298 10296 10292 10291 10293 10293 10292 10292 10292 10291 10290 10291 10290 10290 10291 10291 10291 10290 10291 10291 10290 10289 10288 10287 10285 10283 10281
10415 10412 10408 10404 10401 10398 10395 10392 10389 10387 10384 10381 10378 10375 10372 10369 10367 10364 10361 10358 10354 10351 10347 10344 10341 10338 10335 10333 10332 10331 10329 10326 10323 10320 10317 10314 10312 10309 10307 10306 10305 10304 10302 10300 10297 10296 10296 10295 10294 10292 10290 10289 10287 10285 10285 10286 10287 10288 10289 10286 10281 10281 10283 10283 10282 10283 10283 10281 10280 10281 10281 10282 10283 10283 10284 10284 10283 10283 10283 10282 10281 10280 10279 10277 10275
10403 10399 10395 10392 10389 10386 10383 10380 10377 10374 10371 10369 10366 10363 10360 10357 10354 10350 10347 10343 10340 10337 10334 10331 10327 10324 10321 10319 10318 10317 10315 10313 10311 10308 10305 10303 10301 10298 10296 10294 10292 10291 10290 10287 10285 10284 10283 10283 10282 10281 10280 10279 10277 10276 10275 10275 10274 10276 10278 10276 10273 10272 10273 10272 10271 10273 10274 10272 10272 10272 10273 10274 10275 10276 10276 10276 10276 10275 10275 10274 10274 10273 10272 10271 10269
10390 10386 10383 10379 10376 10373 10371 10368 10365 10362 10359 10356 10353 10350 10346 10343 10340 10337 10334 10331 10327 10324 10321 10318 10315 10311 10307 10304 10303 10302 10300 10299 10297 10295 10293 10290 10288 10286 10284 10282 10280 10278 10276 10274 10272 10272 10271 10270 10269 10268 10268 10267 10267 10266 10264 10263 10263 10264 10266 10266 10266 10265 10264 10263 10263 10264 10265 10264 10264 10263 10264 10265 10267 10268 10268 10268 10268 10267 10267 10266 10266 10266 10266 10264 10262
10378 10374 10371 10367 10364 10361 10358 10355 10352 10349 10346 10343 10340 10336 10333 10329 10326 10323 10321 10318 10314 10311 10308 10305 10302 10299 10296 10292 10289 10287 10286 10284 10282 10281 10279 10277 10275 10273 10271 10269 10267 10264 10262 10260 10259 10259 10259 10258 10256 10256 10255 10255 10256 10255 10252 10250 10252 10255 10256 10256 10256 10256 10255 10255 10256 10256 10256 10256 10256 10255 10256 10258 10259 10260 10260 10260 10260 10260 10259 10259 10259 10259 10259 10257 10255
10365 10362 10359 10355 10352 10348 10345 10342 10339 10336 10333 10329 10326 10323 10319 10315 10312 10310 10307 10305 10301 10298 10294 10291 10288 10286 10283 10280 10276 10273 10271 10270 10268 10266 10264 10263 10261 10260 10258 10256 10254 10251 10249 10247 10246 10246 10246 10246 10245 10244 10243 10243 10245 10245 10242 10240 10242 10244 10244 10245 10246 10246 10246 10247 10248 10247 10247 10247 10247 10246 10247 10250 10252 10252 10252 10252 10252 10251 10251 10251 10251 10252 10251 10250 10248
10353 10349 10346 10342 10339 10335 10331 10328 10324 10321 10318 10315 10312 10308 10305 10302 10299 10296 10294 10291 10288 10284 10280 10277 10273 10271 10268 10266 10263 10260 10257 10255 10253 10252 10250 10249 10248 10246 10245 10243 10241 10239 10237 10235 10234 10233 10233 10233 10233 10233 10233 10232 10233 10234 10233 10231 10231 10232 10233 10234 10235 10235 10236 10237 10239 10238 10238 10238 10238 10237 10238 10240 10242 10243 10244 10244 10244 10242 10242 10242 10243 10244 10243 10242 10242
10340 10336 10333 10329 10325 10321 10318 10314 10310 10307 10303 10300 10297 10294 10291 10288 10285 10281 10278 10275 10273 10269 10266 10262 10259 10256 10253 10251 10248 10245 10243 10241 10239 10237 10236 10235 10233 10232 10231 10229 10227 10226 10224 10223 10222 10221 10221 10221 10221 10222 10222 10222 10222 10222 10222 10222 10222 10222 10222 10223 10223 10224 10225 10227 10229 10229 10228 10228 10229 10230 10230 10231 10232 10234 10235 10235 10235 10234 10234 10235 10236 10236 10236 10235 10235
10327 10323 10319 10315 10312 10308 10304 10301 10297 10293 10290 10286 10282 10279 10277 10274 10271 10267 10263 10260 10257 10254 10250 10247 10244 10241 10239 10236 10234 10231 10229 10227 10225 10223 10222 10220 10219 10218 10216 10215 10213 10212 10211 10210 10209 10208 10208 10208 10208 10209 10209 10210 10211 10211 10211 10212 10211 10211 10211 10211 10211 10213 10215 10217 10219 10220 10220 10220 10220 10221 10222 10222 10223 10224 10226 10227 10226 10226 10226 10227 10228 10228 10228 10228 10228
10315 10311 10307 10302 10298 10294 10290 10286 10283 10279 10276 10273 10269 10266 10263 10260 10257 10253 10250 10246 10243 10239 10236 10233 10230 10228 10225 10222 10219 10217 10214 10212 10211 10209 10208 10206 10205 10203 10202 10201 10199 10199 10198 10197 10196 10194 10194 10194 10195 10195 10196 10198 10199 10200 10200 10200 10200 10201 10201 10201 10201 10203 10205 10206 10208 10210 10211 10212 10212 10212 10213 10213 10214 10215 10217 10218 10218 10218 10219 10219 10220 10220 10220 10220 10220
10303 10299 10294 10290 10285 10281 10277 10273 10269 10266 10262 10259 10255 10252 10249 10246 10243 10240 10236 10233 10229 10225 10222 10219 10216 10214 10211 10208 10205 10202 10200 10198 10196 10195 10193 10192 10190 10189 10188 10187 10185 10184 10184 10184 10183 10181 10181 10181 10182 10182 10183 10185 10187 10188 10189 10189 10189 10190 10191 10191 10191 10191 10192 10194 10197 10199 10202 10202 10202 10203 10205 10205 10206 10206 10208 10209 10210 10211 10211 10212 10212 10212 10212 10212 10213
10291 10286 10281 10277 10272 10268 10264 10260 10256 10252 10249 10245 10241 10238 10235 10232 10229 10226 10222 10219 10216 10212 10209 10205 10202 10199 10196 10194 10191 10189 10186 10184 10183 10181 10179 10178 10176 10175 10174 10173 10172 10171 10170 10170 10170 10169 10169 10169 10169 10170 10170 10172 10174 10175 10177 10178 10179 10180 10180 10179 10178 10179 10181 10184 10186 10189 10192 10192 10193 10194 10197 10198 10198 10198 10200 10201 10202 10203 10204 10205 10205 10205 10204 10204 10205